User: anonymous   Login
Location: Ellingshausen
(50.5460°N, 10.4723°E)
Time: 21:05:10
(UTC+00:00)
Language:

Cosmos 2074 Rocket - Orbit

View from above orbital plane
View from above orbital plane
View from above satellite
View from above satellite

Ground track
Ground track

The orbit is defined by the following mean orbital elements,

1 20578U          26069.32229727 +.00000000 +00000-0 +52155-4 0 00004
2 20578  82.9467 152.7692 0014052  65.5219 358.3324 13.76636710    00
Epoch (UTC): 10 March 2026 07:44:06
Eccentricity: 0.0014052
inclination: 82.9467°
perigee height: 966 km
apogee height: 986 km
right ascension of ascending node: 152.7692°
argument of perigee: 65.5219°
revolutions per day: 13.76636710
mean anomaly at epoch: 358.3324°

The dashed part of the orbit path shows where the satellite is in the earth's shadow,  

DLR